Station Historical Data
Daily Summary for October 29, 2017 Units:  English    Metric   Both
Next Day »
Daily Weekly Monthly Yearly Custom
  High: Low: Average:
Temperature: 75.6 °F 61.1 °F 66 °F
Dew Point: 51.7 °F 41.9 °F 46.7 °F
Humidity: 62% 32% 50%
Wind Speed: 12.0mph 0.0mph 2.4mph
Wind Gust: 15.0mph - -
Wind- - SE
Pressure: 29.90 in 29.82 in -
Precipitation: 0.00 in    
Historical Graphs
 
 
Tabular Data for October 29, 2017
Time Temperature Dew Point Pressure Wind Wind Speed Wind Gust Humidity Rainfall Rate (Hourly) solar Conditions
00:00 64.4 °F 47.9 °F 29.90 in ESE 5.0 mph 11.0 mph 55% 0.00 in 0.00 W/m2
00:05 64.3 °F 47.3 °F 29.90 in East 9.0 mph 13.0 mph 54% 0.00 in 0.00 W/m2
00:10 64.4 °F 47.9 °F 29.90 in East 7.0 mph 13.0 mph 55% 0.00 in 0.00 W/m2
00:15 64.3 °F 47.8 °F 29.90 in Calm   13.0 mph 55% 0.00 in 0.00 W/m2
00:20 64.3 °F 47.8 °F 29.90 in Calm   13.0 mph 55% 0.00 in 0.00 W/m2
00:25 64.3 °F 47.8 °F 29.90 in East 9.0 mph 9.0 mph 55% 0.00 in 0.00 W/m2
00:30 64.2 °F 47.7 °F 29.90 in East 7.0 mph 11.0 mph 55% 0.00 in 0.00 W/m2
00:35 64.2 °F 47.7 °F 29.90 in East 8.0 mph 9.0 mph 55% 0.00 in 0.00 W/m2
00:40 64.1 °F 47.6 °F 29.90 in Calm   11.0 mph 55% 0.00 in 0.00 W/m2
00:45 64.0 °F 47.5 °F 29.90 in East 7.0 mph 8.0 mph 55% 0.00 in 0.00 W/m2
00:50 63.9 °F 47.4 °F 29.90 in Calm   9.0 mph 55% 0.00 in 0.00 W/m2
00:55 63.8 °F 47.3 °F 29.90 in East 7.0 mph 8.0 mph 55% 0.00 in 0.00 W/m2
01:00 63.8 °F 47.3 °F 29.90 in East 7.0 mph 13.0 mph 55% 0.00 in 0.00 W/m2
01:05 63.7 °F 47.2 °F 29.90 in East 5.0 mph 9.0 mph 55% 0.00 in 0.00 W/m2
01:10 63.6 °F 47.2 °F 29.90 in ESE 5.0 mph 13.0 mph 55% 0.00 in 0.00 W/m2
01:15 63.5 °F 47.1 °F 29.90 in ESE 5.0 mph 13.0 mph 55% 0.00 in 0.00 W/m2
01:20 63.5 °F 47.1 °F 29.90 in East 4.0 mph 12.0 mph 55% 0.00 in 0.00 W/m2
01:25 63.4 °F 47.0 °F 29.90 in East 4.0 mph 11.0 mph 55% 0.00 in 0.00 W/m2
01:30 63.4 °F 47.0 °F 29.90 in East 5.0 mph 11.0 mph 55% 0.00 in 0.00 W/m2
01:35 63.4 °F 47.0 °F 29.90 in Calm   12.0 mph 55% 0.00 in 0.00 W/m2
01:40 63.4 °F 47.0 °F 29.90 in East 5.0 mph 12.0 mph 55% 0.00 in 0.00 W/m2
01:45 63.3 °F 46.9 °F 29.89 in East 2.0 mph 12.0 mph 55% 0.00 in 0.00 W/m2
01:50 63.3 °F 46.9 °F 29.89 in East 8.0 mph 12.0 mph 55% 0.00 in 0.00 W/m2
01:55 63.2 °F 46.8 °F 29.89 in East 9.0 mph 14.0 mph 55% 0.00 in 0.00 W/m2
02:00 63.2 °F 46.8 °F 29.89 in ESE 5.0 mph 12.0 mph 55% 0.00 in 0.00 W/m2
02:05 63.2 °F 46.3 °F 29.89 in East 6.0 mph 12.0 mph 54% 0.00 in 0.00 W/m2
02:10 63.2 °F 46.8 °F 29.89 in East 7.0 mph 13.0 mph 55% 0.00 in 0.00 W/m2
02:15 63.2 °F 46.8 °F 29.89 in East 2.0 mph 11.0 mph 55% 0.00 in 0.00 W/m2
02:20 63.2 °F 46.8 °F 29.89 in East 5.0 mph 9.0 mph 55% 0.00 in 0.00 W/m2
02:25 63.2 °F 46.3 °F 29.89 in Calm   11.0 mph 54% 0.00 in 0.00 W/m2
02:30 63.2 °F 46.8 °F 29.90 in East 1.0 mph 12.0 mph 55% 0.00 in 0.00 W/m2
02:35 63.2 °F 46.8 °F 29.90 in ESE 7.0 mph 12.0 mph 55% 0.00 in 0.00 W/m2
02:40 63.1 °F 46.7 °F 29.90 in Calm   12.0 mph 55% 0.00 in 0.00 W/m2
02:45 63.0 °F 46.6 °F 29.90 in ESE 6.0 mph 8.0 mph 55% 0.00 in 0.00 W/m2
02:50 63.0 °F 46.6 °F 29.90 in ESE 1.0 mph 8.0 mph 55% 0.00 in 0.00 W/m2
02:55 62.9 °F 46.5 °F 29.90 in Calm   9.0 mph 55% 0.00 in 0.00 W/m2
03:00 62.9 °F 46.5 °F 29.90 in Calm   7.0 mph 55% 0.00 in 0.00 W/m2
03:05 62.9 °F 46.5 °F 29.89 in ESE 1.0 mph 8.0 mph 55% 0.00 in 0.00 W/m2
03:10 62.9 °F 46.0 °F 29.89 in Calm   8.0 mph 54% 0.00 in 0.00 W/m2
03:20 62.8 °F 45.9 °F 29.89 in East 4.0 mph 9.0 mph 54% 0.00 in 0.00 W/m2
03:25 62.7 °F 46.3 °F 29.89 in East 7.0 mph 8.0 mph 55% 0.00 in 0.00 W/m2
03:30 62.7 °F 46.3 °F 29.89 in Calm   9.0 mph 55% 0.00 in 0.00 W/m2
03:35 62.7 °F 45.8 °F 29.89 in Calm   7.0 mph 54% 0.00 in 0.00 W/m2
03:40 62.6 °F 46.2 °F 29.88 in Calm   9.0 mph 55% 0.00 in 0.00 W/m2
03:45 62.6 °F 46.2 °F 29.88 in ESE 5.0 mph 12.0 mph 55% 0.00 in 0.00 W/m2
03:50 62.6 °F 46.2 °F 29.88 in ESE 1.0 mph 9.0 mph 55% 0.00 in 0.00 W/m2
04:00 62.5 °F 46.1 °F 29.88 in ESE 6.0 mph 8.0 mph 55% 0.00 in 0.00 W/m2
04:05 62.4 °F 46.5 °F 29.88 in ESE 4.0 mph 12.0 mph 56% 0.00 in 0.00 W/m2
04:10 62.3 °F 46.4 °F 29.88 in ESE 2.0 mph 9.0 mph 56% 0.00 in 0.00 W/m2
04:15 62.3 °F 46.4 °F 29.88 in Calm   9.0 mph 56% 0.00 in 0.00 W/m2
04:20 62.2 °F 46.3 °F 29.88 in ESE 4.0 mph 9.0 mph 56% 0.00 in 0.00 W/m2
04:25 62.1 °F 46.2 °F 29.88 in ESE 4.0 mph 9.0 mph 56% 0.00 in 0.00 W/m2
04:30 62.0 °F 46.1 °F 29.88 in Calm   9.0 mph 56% 0.00 in 0.00 W/m2
04:35 61.9 °F 46.0 °F 29.88 in Calm   7.0 mph 56% 0.00 in 0.00 W/m2
04:40 61.8 °F 46.0 °F 29.88 in Calm   11.0 mph 56% 0.00 in 0.00 W/m2
04:45 61.8 °F 46.0 °F 29.88 in East 2.0 mph 11.0 mph 56% 0.00 in 0.00 W/m2
04:50 61.8 °F 45.5 °F 29.88 in East 5.0 mph 8.0 mph 55% 0.00 in 0.00 W/m2
04:55 61.8 °F 46.0 °F 29.88 in ESE 2.0 mph 9.0 mph 56% 0.00 in 0.00 W/m2
05:00 61.8 °F 45.5 °F 29.88 in Calm   11.0 mph 55% 0.00 in 0.00 W/m2
05:05 61.8 °F 45.5 °F 29.88 in ESE 5.0 mph 11.0 mph 55% 0.00 in 0.00 W/m2
05:10 61.8 °F 45.5 °F 29.88 in ESE 7.0 mph 11.0 mph 55% 0.00 in 0.00 W/m2
05:15 61.7 °F 45.4 °F 29.88 in Calm   11.0 mph 55% 0.00 in 0.00 W/m2
05:20 61.8 °F 45.5 °F 29.88 in ESE 2.0 mph 12.0 mph 55% 0.00 in 0.00 W/m2
05:25 61.7 °F 44.9 °F 29.88 in ESE 1.0 mph 11.0 mph 54% 0.00 in 0.00 W/m2
05:30 61.6 °F 44.8 °F 29.87 in ESE 11.0 mph 11.0 mph 54% 0.00 in 0.00 W/m2
05:35 61.6 °F 44.8 °F 29.87 in ESE 8.0 mph 12.0 mph 54% 0.00 in 0.00 W/m2
05:40 61.6 °F 45.3 °F 29.87 in ESE 4.0 mph 12.0 mph 55% 0.00 in 0.00 W/m2
05:45 61.6 °F 44.8 °F 29.87 in ESE 2.0 mph 9.0 mph 54% 0.00 in 0.00 W/m2
05:50 61.6 °F 44.8 °F 29.87 in East 1.0 mph 13.0 mph 54% 0.00 in 0.00 W/m2
05:55 61.5 °F 44.7 °F 29.87 in East 1.0 mph 13.0 mph 54% 0.00 in 0.00 W/m2
06:00 61.5 °F 44.2 °F 29.87 in ESE 6.0 mph 11.0 mph 53% 0.00 in 0.00 W/m2
06:05 61.5 °F 44.2 °F 29.87 in Calm   13.0 mph 53% 0.00 in 0.00 W/m2
06:10 61.5 °F 44.2 °F 29.88 in ESE 5.0 mph 11.0 mph 53% 0.00 in 0.00 W/m2
06:15 61.4 °F 44.1 °F 29.88 in Calm   12.0 mph 53% 0.00 in 0.00 W/m2
06:20 61.4 °F 44.1 °F 29.87 in East 4.0 mph 11.0 mph 53% 0.00 in 0.00 W/m2
06:25 61.4 °F 44.1 °F 29.87 in East 2.0 mph 11.0 mph 53% 0.00 in 0.00 W/m2
06:30 61.3 °F 44.0 °F 29.87 in East 6.0 mph 12.0 mph 53% 0.00 in 0.00 W/m2
06:35 61.2 °F 44.0 °F 29.87 in ESE 8.0 mph 14.0 mph 53% 0.00 in 0.00 W/m2
06:40 61.2 °F 43.5 °F 29.87 in ESE 1.0 mph 11.0 mph 52% 0.00 in 0.00 W/m2
06:45 61.2 °F 44.0 °F 29.87 in Calm   9.0 mph 53% 0.00 in 0.00 W/m2
06:50 61.2 °F 43.5 °F 29.87 in ESE 11.0 mph 13.0 mph 52% 0.00 in 0.00 W/m2
06:55 61.1 °F 43.4 °F 29.87 in East 4.0 mph 13.0 mph 52% 0.00 in 0.00 W/m2
07:00 61.1 °F 43.4 °F 29.87 in East 5.0 mph 13.0 mph 52% 0.00 in 0.00 W/m2
07:05 61.1 °F 42.8 °F 29.88 in Calm   15.0 mph 51% 0.00 in 0.00 W/m2
07:10 61.2 °F 43.0 °F 29.88 in ESE 7.0 mph 13.0 mph 51% 0.00 in 0.00 W/m2
07:15 61.2 °F 43.0 °F 29.88 in ESE 1.0 mph 11.0 mph 51% 0.00 in 0.00 W/m2
07:20 61.2 °F 43.0 °F 29.88 in ESE 6.0 mph 12.0 mph 51% 0.00 in 0.00 W/m2
07:25 61.2 °F 42.4 °F 29.88 in East 4.0 mph 12.0 mph 50% 0.00 in 5.00 W/m2
07:30 61.3 °F 43.0 °F 29.88 in East 6.0 mph 9.0 mph 51% 0.00 in 7.00 W/m2
07:35 61.2 °F 42.4 °F 29.88 in East 2.0 mph 11.0 mph 50% 0.00 in 9.00 W/m2
07:40 61.3 °F 42.5 °F 29.88 in East 5.0 mph 12.0 mph 50% 0.00 in 12.00 W/m2
07:45 61.2 °F 43.0 °F 29.88 in East 1.0 mph 12.0 mph 51% 0.00 in 14.00 W/m2
07:50 61.2 °F 42.4 °F 29.88 in East 1.0 mph 11.0 mph 50% 0.00 in 19.00 W/m2
07:55 61.2 °F 42.4 °F 29.88 in Calm   13.0 mph 50% 0.00 in 26.00 W/m2
08:00 61.2 °F 42.4 °F 29.88 in ESE 7.0 mph 15.0 mph 50% 0.00 in 33.00 W/m2
08:05 61.2 °F 41.9 °F 29.89 in ESE 5.0 mph 7.0 mph 49% 0.00 in 49.00 W/m2
08:10 61.2 °F 41.9 °F 29.89 in East 12.0 mph 13.0 mph 49% 0.00 in 63.00 W/m2
08:15 61.2 °F 42.4 °F 29.89 in East 5.0 mph 15.0 mph 50% 0.00 in 76.00 W/m2
08:20 61.2 °F 43.0 °F 29.89 in East 7.0 mph 12.0 mph 51% 0.00 in 95.00 W/m2
08:25 61.2 °F 42.4 °F 29.89 in East 5.0 mph 11.0 mph 50% 0.00 in 111.00 W/m2
08:30 61.3 °F 43.0 °F 29.89 in East 1.0 mph 12.0 mph 51% 0.00 in 132.00 W/m2
08:35 61.3 °F 43.0 °F 29.89 in East 6.0 mph 11.0 mph 51% 0.00 in 149.00 W/m2
08:40 61.3 °F 43.0 °F 29.89 in ESE 2.0 mph 15.0 mph 51% 0.00 in 169.00 W/m2
08:45 61.4 °F 43.1 °F 29.89 in East 9.0 mph 12.0 mph 51% 0.00 in 188.00 W/m2
08:50 61.4 °F 43.1 °F 29.89 in East 5.0 mph 14.0 mph 51% 0.00 in 204.00 W/m2
08:55 61.5 °F 43.2 °F 29.89 in East 9.0 mph 14.0 mph 51% 0.00 in 225.00 W/m2
09:00 61.7 °F 42.9 °F 29.89 in East 5.0 mph 9.0 mph 50% 0.00 in 248.00 W/m2
09:05 61.8 °F 42.5 °F 29.89 in Calm   14.0 mph 49% 0.00 in 265.00 W/m2
09:10 62.0 °F 42.6 °F 29.89 in ESE 11.0 mph 13.0 mph 49% 0.00 in 279.00 W/m2
09:15 62.3 °F 42.4 °F 29.89 in ESE 1.0 mph 11.0 mph 48% 0.00 in 299.00 W/m2
09:20 62.5 °F 42.6 °F 29.89 in ESE 2.0 mph 12.0 mph 48% 0.00 in 311.00 W/m2
09:25 62.8 °F 43.4 °F 29.89 in ESE 5.0 mph 5.0 mph 49% 0.00 in 329.00 W/m2
09:30 63.0 °F 43.6 °F 29.89 in ESE 1.0 mph 8.0 mph 49% 0.00 in 343.00 W/m2
09:35 63.2 °F 43.2 °F 29.89 in Calm   9.0 mph 48% 0.00 in 359.00 W/m2
09:40 63.5 °F 43.5 °F 29.89 in ESE 6.0 mph 12.0 mph 48% 0.00 in 369.00 W/m2
09:45 63.7 °F 43.7 °F 29.89 in Calm   9.0 mph 48% 0.00 in 385.00 W/m2
09:50 64.0 °F 43.9 °F 29.90 in Calm   9.0 mph 48% 0.00 in 397.00 W/m2
09:55 64.2 °F 43.6 °F 29.89 in ESE 4.0 mph 9.0 mph 47% 0.00 in 411.00 W/m2
10:00 64.5 °F 44.4 °F 29.89 in ESE 5.0 mph 11.0 mph 48% 0.00 in 422.00 W/m2
10:05 64.8 °F 43.6 °F 29.90 in Calm   8.0 mph 46% 0.00 in 434.00 W/m2
10:10 65.0 °F 43.2 °F 29.89 in Calm   5.0 mph 45% 0.00 in 448.00 W/m2
10:15 65.5 °F 44.8 °F 29.89 in Calm   6.0 mph 47% 0.00 in 459.00 W/m2
10:16 65.5 °F 44.8 °F 29.89 in ESE 1.0 mph 1.0 mph 47% 0.00 in 459.00 W/m2
10:21 65.8 °F 44.5 °F 29.89 in Calm     46% 0.00 in 471.00 W/m2
10:26 66.1 °F 44.7 °F 29.89 in Calm     46% 0.00 in 483.00 W/m2
10:31 66.4 °F 45.0 °F 29.89 in Calm   1.0 mph 46% 0.00 in 494.00 W/m2
10:36 66.8 °F 44.8 °F 29.89 in Calm   4.0 mph 45% 0.00 in 503.00 W/m2
10:41 67.1 °F 43.9 °F 29.89 in ESE 6.0 mph 6.0 mph 43% 0.00 in 513.00 W/m2
10:46 67.4 °F 43.5 °F 29.89 in ESE 2.0 mph 6.0 mph 42% 0.00 in 522.00 W/m2
10:51 67.9 °F 44.0 °F 29.89 in Calm     42% 0.00 in 531.00 W/m2
10:56 68.4 °F 43.8 °F 29.89 in Calm     41% 0.00 in 540.00 W/m2
11:01 68.8 °F 44.8 °F 29.89 in Calm     42% 0.00 in 548.00 W/m2
11:06 69.2 °F 45.2 °F 29.89 in ESE 1.0 mph 6.0 mph 42% 0.00 in 555.00 W/m2
11:11 69.8 °F 45.7 °F 29.89 in Calm   1.0 mph 42% 0.00 in 564.00 W/m2
11:12 69.8 °F 45.7 °F 29.89 in Calm   2.0 mph 42% 0.00 in 564.00 W/m2
11:17 70.3 °F 46.2 °F 29.89 in ESE 2.0 mph 5.0 mph 42% 0.00 in 571.00 W/m2
11:22 70.6 °F 46.4 °F 29.89 in Calm   1.0 mph 42% 0.00 in 578.00 W/m2
11:27 71.0 °F 46.8 °F 29.89 in ESE 8.0 mph 8.0 mph 42% 0.00 in 585.00 W/m2
11:32 71.5 °F 46.6 °F 29.89 in SE 5.0 mph 6.0 mph 41% 0.00 in 591.00 W/m2
11:37 71.9 °F 46.3 °F 29.89 in SE 4.0 mph 8.0 mph 40% 0.00 in 596.00 W/m2
11:42 72.2 °F 45.9 °F 29.89 in Calm   5.0 mph 39% 0.00 in 603.00 W/m2
11:47 72.7 °F 46.3 °F 29.89 in SSE 7.0 mph 8.0 mph 39% 0.00 in 606.00 W/m2
11:52 72.9 °F 46.5 °F 29.89 in SSE 6.0 mph 6.0 mph 39% 0.00 in 610.00 W/m2
11:57 73.2 °F 46.8 °F 29.89 in Calm   5.0 mph 39% 0.00 in 613.00 W/m2
12:02 73.4 °F 47.6 °F 29.89 in South 1.0 mph 1.0 mph 40% 0.00 in 619.00 W/m2
12:07 73.5 °F 47.7 °F 29.89 in Calm   1.0 mph 40% 0.00 in 622.00 W/m2
12:12 73.6 °F 48.5 °F 29.89 in Calm   4.0 mph 41% 0.00 in 626.00 W/m2
12:17 73.7 °F 47.2 °F 29.88 in Calm   4.0 mph 39% 0.00 in 629.00 W/m2
12:22 73.7 °F 47.2 °F 29.88 in SW 4.0 mph 6.0 mph 39% 0.00 in 629.00 W/m2
12:27 73.8 °F 47.3 °F 29.88 in Calm   4.0 mph 39% 0.00 in 629.00 W/m2
12:32 73.9 °F 48.1 °F 29.88 in SW 4.0 mph 7.0 mph 40% 0.00 in 631.00 W/m2
12:37 74.0 °F 48.2 °F 29.88 in Calm   8.0 mph 40% 0.00 in 631.00 W/m2
12:42 74.0 °F 47.5 °F 29.88 in Calm   7.0 mph 39% 0.00 in 633.00 W/m2
12:47 74.1 °F 48.3 °F 29.88 in Calm   3.0 mph 40% 0.00 in 633.00 W/m2
12:52 74.1 °F 48.3 °F 29.87 in SW 5.0 mph 6.0 mph 40% 0.00 in 631.00 W/m2
12:57 74.1 °F 48.3 °F 29.87 in SW 1.0 mph 5.0 mph 40% 0.00 in 631.00 W/m2
13:02 74.1 °F 47.6 °F 29.87 in Calm   5.0 mph 39% 0.00 in 629.00 W/m2
13:07 74.2 °F 47.7 °F 29.87 in SW 2.0 mph 9.0 mph 39% 0.00 in 628.00 W/m2
13:12 74.3 °F 47.8 °F 29.87 in Calm     39% 0.00 in 626.00 W/m2
13:17 74.4 °F 47.9 °F 29.86 in Calm   1.0 mph 39% 0.00 in 624.00 W/m2
13:22 74.4 °F 47.2 °F 29.86 in SSW 1.0 mph 6.0 mph 38% 0.00 in 622.00 W/m2
13:27 74.6 °F 47.3 °F 29.86 in Calm   1.0 mph 38% 0.00 in 617.00 W/m2
13:29 74.6 °F 47.3 °F 29.86 in Calm   1.0 mph 38% 0.00 in 615.00 W/m2
13:34 74.6 °F 46.6 °F 29.86 in Calm   5.0 mph 37% 0.00 in 613.00 W/m2
13:39 74.7 °F 46.7 °F 29.86 in SW 4.0 mph 6.0 mph 37% 0.00 in 612.00 W/m2
13:44 74.8 °F 45.3 °F 29.86 in SW 4.0 mph 5.0 mph 35% 0.00 in 605.00 W/m2
13:49 74.9 °F 46.9 °F 29.85 in Calm     37% 0.00 in 601.00 W/m2
13:54 75.0 °F 44.0 °F 29.85 in Calm   7.0 mph 33% 0.00 in 594.00 W/m2
13:59 75.2 °F 43.3 °F 29.85 in SW 3.0 mph 5.0 mph 32% 0.00 in 587.00 W/m2
14:09 75.5 °F 47.4 °F 29.85 in Calm   7.0 mph 37% 0.00 in 571.00 W/m2
14:14 75.6 °F 46.8 °F 29.85 in Calm   4.0 mph 36% 0.00 in 570.00 W/m2
14:19 75.6 °F 46.0 °F 29.85 in Calm   4.0 mph 35% 0.00 in 563.00 W/m2
14:24 75.5 °F 46.0 °F 29.85 in SW 4.0 mph 8.0 mph 35% 0.00 in 555.00 W/m2
14:29 75.5 °F 43.6 °F 29.85 in Calm   9.0 mph 32% 0.00 in 548.00 W/m2
14:34 75.6 °F 44.5 °F 29.84 in SW 3.0 mph 7.0 mph 33% 0.00 in 536.00 W/m2
14:39 75.6 °F 46.8 °F 29.84 in SW 1.0 mph 3.0 mph 36% 0.00 in 531.00 W/m2
14:44 75.5 °F 46.7 °F 29.84 in SW 9.0 mph 9.0 mph 36% 0.00 in 519.00 W/m2
14:49 75.5 °F 47.4 °F 29.84 in WSW 1.0 mph 8.0 mph 37% 0.00 in 513.00 W/m2
14:54 75.4 °F 48.0 °F 29.84 in Calm   5.0 mph 38% 0.00 in 506.00 W/m2
14:59 75.3 °F 47.3 °F 29.84 in Calm   1.0 mph 37% 0.00 in 438.00 W/m2
15:04 75.2 °F 45.7 °F 29.84 in Calm   2.0 mph 35% 0.00 in 471.00 W/m2
15:09 75.2 °F 45.7 °F 29.84 in Calm   6.0 mph 35% 0.00 in 459.00 W/m2
15:14 75.1 °F 45.6 °F 29.84 in WSW 1.0 mph 3.0 mph 35% 0.00 in 473.00 W/m2
15:19 75.1 °F 45.6 °F 29.84 in WSW 2.0 mph 7.0 mph 35% 0.00 in 469.00 W/m2
15:24 75.1 °F 46.3 °F 29.84 in Calm   4.0 mph 36% 0.00 in 443.00 W/m2
15:29 75.1 °F 45.6 °F 29.84 in Calm   5.0 mph 35% 0.00 in 457.00 W/m2
15:34 75.1 °F 46.3 °F 29.84 in Calm   6.0 mph 36% 0.00 in 445.00 W/m2
15:39 75.1 °F 46.3 °F 29.84 in WSW 7.0 mph 9.0 mph 36% 0.00 in 432.00 W/m2
15:44 75.1 °F 47.1 °F 29.84 in SW 2.0 mph 9.0 mph 37% 0.00 in 408.00 W/m2
15:49 75.0 °F 47.7 °F 29.84 in Calm   9.0 mph 38% 0.00 in 229.00 W/m2
15:54 74.8 °F 48.9 °F 29.84 in Calm   4.0 mph 40% 0.00 in 281.00 W/m2
15:59 74.6 °F 48.7 °F 29.84 in WSW 5.0 mph 9.0 mph 40% 0.00 in 197.00 W/m2
16:04 74.5 °F 49.3 °F 29.84 in Calm   3.0 mph 41% 0.00 in 148.00 W/m2
16:09 74.2 °F 50.3 °F 29.84 in Calm   4.0 mph 43% 0.00 in 288.00 W/m2
16:14 73.8 °F 49.3 °F 29.84 in Calm   6.0 mph 42% 0.00 in 211.00 W/m2
16:19 73.7 °F 49.8 °F 29.84 in Calm   7.0 mph 43% 0.00 in 172.00 W/m2
16:24 73.5 °F 49.7 °F 29.84 in Calm   4.0 mph 43% 0.00 in 137.00 W/m2
16:30 73.3 °F 50.1 °F 29.84 in Calm     44% 0.00 in 127.00 W/m2
16:35 73.1 °F 49.9 °F 29.84 in Calm   1.0 mph 44% 0.00 in 120.00 W/m2
16:40 73.0 °F 50.4 °F 29.84 in Calm     45% 0.00 in 130.00 W/m2
16:45 72.9 °F 50.9 °F 29.84 in Calm     46% 0.00 in 118.00 W/m2
16:50 72.7 °F 51.3 °F 29.84 in Calm     47% 0.00 in 125.00 W/m2
16:55 72.5 °F 51.2 °F 29.84 in Calm     47% 0.00 in 105.00 W/m2
17:00 72.4 °F 51.0 °F 29.84 in Calm     47% 0.00 in 162.00 W/m2
17:10 72.1 °F 51.3 °F 29.83 in Calm     48% 0.00 in 156.00 W/m2
17:15 71.9 °F 51.7 °F 29.83 in Calm     49% 0.00 in 113.00 W/m2
17:20 71.8 °F 51.6 °F 29.83 in Calm     49% 0.00 in 67.00 W/m2
17:25 71.6 °F 51.5 °F 29.83 in Calm     49% 0.00 in 54.00 W/m2
17:30 71.4 °F 51.3 °F 29.83 in Calm     49% 0.00 in 44.00 W/m2
17:35 71.3 °F 51.2 °F 29.83 in Calm     49% 0.00 in 35.00 W/m2
17:40 71.1 °F 51.5 °F 29.83 in Calm     50% 0.00 in 33.00 W/m2
17:45 70.9 °F 51.3 °F 29.83 in Calm     50% 0.00 in 25.00 W/m2
17:50 70.6 °F 51.6 °F 29.83 in Calm     51% 0.00 in 19.00 W/m2
17:55 70.2 °F 51.2 °F 29.83 in Calm     51% 0.00 in 14.00 W/m2
18:00 69.9 °F 51.5 °F 29.83 in Calm     52% 0.00 in 9.00 W/m2
18:05 69.6 °F 51.2 °F 29.83 in Calm     52% 0.00 in 7.00 W/m2
18:10 69.2 °F 50.8 °F 29.83 in Calm     52% 0.00 in 5.00 W/m2
18:15 68.5 °F 50.7 °F 29.83 in Calm     53% 0.00 in 0.00 W/m2
18:20 67.8 °F 50.6 °F 29.83 in Calm     54% 0.00 in 0.00 W/m2
18:25 67.1 °F 50.4 °F 29.83 in Calm     55% 0.00 in 0.00 W/m2
18:30 66.5 °F 49.8 °F 29.83 in Calm     55% 0.00 in 0.00 W/m2
18:31 66.4 °F 49.8 °F 29.83 in Calm     55% 0.00 in 0.00 W/m2
18:36 65.9 °F 49.8 °F 29.83 in Calm     56% 0.00 in 0.00 W/m2
18:41 65.5 °F 49.4 °F 29.83 in Calm     56% 0.00 in 0.00 W/m2
18:46 65.2 °F 49.6 °F 29.83 in Calm     57% 0.00 in 0.00 W/m2
18:51 64.9 °F 49.3 °F 29.83 in Calm     57% 0.00 in 0.00 W/m2
18:56 64.7 °F 49.6 °F 29.83 in Calm     58% 0.00 in 0.00 W/m2
19:01 64.6 °F 49.0 °F 29.83 in Calm     57% 0.00 in 0.00 W/m2
19:06 64.4 °F 49.3 °F 29.83 in Calm     58% 0.00 in 0.00 W/m2
19:11 64.2 °F 49.1 °F 29.83 in Calm     58% 0.00 in 0.00 W/m2
19:16 64.0 °F 48.9 °F 29.83 in Calm     58% 0.00 in 0.00 W/m2
19:21 63.9 °F 48.8 °F 29.83 in Calm     58% 0.00 in 0.00 W/m2
19:26 63.8 °F 48.8 °F 29.84 in Calm     58% 0.00 in 0.00 W/m2
19:31 63.6 °F 49.0 °F 29.84 in Calm     59% 0.00 in 0.00 W/m2
19:36 63.6 °F 49.0 °F 29.83 in Calm     59% 0.00 in 0.00 W/m2
19:41 63.5 °F 48.9 °F 29.83 in Calm     59% 0.00 in 0.00 W/m2
19:46 63.4 °F 48.8 °F 29.83 in Calm     59% 0.00 in 0.00 W/m2
19:51 63.2 °F 48.7 °F 29.83 in Calm     59% 0.00 in 0.00 W/m2
19:56 63.1 °F 48.6 °F 29.83 in Calm     59% 0.00 in 0.00 W/m2
20:01 62.9 °F 48.8 °F 29.83 in Calm     60% 0.00 in 0.00 W/m2
20:06 62.8 °F 48.7 °F 29.83 in Calm     60% 0.00 in 0.00 W/m2
20:16 62.6 °F 49.0 °F 29.83 in Calm     61% 0.00 in 0.00 W/m2
20:21 62.5 °F 48.9 °F 29.83 in Calm     61% 0.00 in 0.00 W/m2
20:23 62.5 °F 48.9 °F 29.83 in Calm     61% 0.00 in 0.00 W/m2
20:26 62.4 °F 48.8 °F 29.83 in Calm     61% 0.00 in 0.00 W/m2
20:31 62.3 °F 48.7 °F 29.83 in Calm     61% 0.00 in 0.00 W/m2
20:36 62.3 °F 48.7 °F 29.83 in Calm     61% 0.00 in 0.00 W/m2
20:41 62.2 °F 48.6 °F 29.83 in Calm     61% 0.00 in 0.00 W/m2
20:46 62.1 °F 48.9 °F 29.83 in WSW 1.0 mph 2.0 mph 62% 0.00 in 0.00 W/m2
20:51 62.1 °F 48.9 °F 29.83 in WSW 3.0 mph 4.0 mph 62% 0.00 in 0.00 W/m2
20:56 62.1 °F 48.9 °F 29.83 in Calm   3.0 mph 62% 0.00 in 0.00 W/m2
21:01 62.0 °F 48.8 °F 29.83 in West 1.0 mph 1.0 mph 62% 0.00 in 0.00 W/m2
21:06 62.0 °F 48.8 °F 29.83 in West 3.0 mph 4.0 mph 62% 0.00 in 0.00 W/m2
21:11 62.0 °F 48.8 °F 29.83 in West 3.0 mph 4.0 mph 62% 0.00 in 0.00 W/m2
21:16 62.0 °F 48.8 °F 29.83 in Calm   1.0 mph 62% 0.00 in 0.00 W/m2
21:21 62.0 °F 48.8 °F 29.83 in Calm   2.0 mph 62% 0.00 in 0.00 W/m2
21:26 62.0 °F 48.8 °F 29.82 in Calm     62% 0.00 in 0.00 W/m2
21:31 62.0 °F 48.8 °F 29.83 in Calm   5.0 mph 62% 0.00 in 0.00 W/m2
21:36 62.0 °F 48.8 °F 29.82 in West 4.0 mph 6.0 mph 62% 0.00 in 0.00 W/m2
21:41 62.0 °F 48.8 °F 29.82 in WNW 4.0 mph 8.0 mph 62% 0.00 in 0.00 W/m2
21:46 62.0 °F 48.4 °F 29.82 in East 5.0 mph 13.0 mph 61% 0.00 in 0.00 W/m2
21:51 61.9 °F 48.3 °F 29.82 in East 7.0 mph 13.0 mph 61% 0.00 in 0.00 W/m2
21:56 62.0 °F 48.4 °F 29.82 in East 8.0 mph 9.0 mph 61% 0.00 in 0.00 W/m2
22:01 62.0 °F 48.0 °F 29.82 in East 7.0 mph 13.0 mph 60% 0.00 in 0.00 W/m2
22:07 62.0 °F 48.0 °F 29.82 in East 7.0 mph 10.0 mph 60% 0.00 in 0.00 W/m2
22:09 62.0 °F 47.5 °F 29.82 in East 2.0 mph 11.0 mph 59% 0.00 in 0.00 W/m2
22:14 62.0 °F 47.1 °F 29.82 in East 8.0 mph 12.0 mph 58% 0.00 in 0.00 W/m2
22:19 62.2 °F 47.7 °F 29.82 in East 1.0 mph 15.0 mph 59% 0.00 in 0.00 W/m2
22:24 62.2 °F 47.3 °F 29.82 in Calm   11.0 mph 58% 0.00 in 0.00 W/m2
22:29 62.3 °F 46.9 °F 29.82 in East 7.0 mph 12.0 mph 57% 0.00 in 0.00 W/m2
22:34 62.3 °F 46.9 °F 29.82 in Calm   8.0 mph 57% 0.00 in 0.00 W/m2
22:39 62.4 °F 46.5 °F 29.82 in ESE 9.0 mph 9.0 mph 56% 0.00 in 0.00 W/m2
22:44 62.4 °F 46.5 °F 29.82 in East 9.0 mph 12.0 mph 56% 0.00 in 0.00 W/m2
22:49 62.5 °F 46.6 °F 29.82 in Calm   9.0 mph 56% 0.00 in 0.00 W/m2
22:54 62.5 °F 46.1 °F 29.83 in ESE 5.0 mph 12.0 mph 55% 0.00 in 0.00 W/m2
22:59 62.5 °F 46.6 °F 29.83 in Calm   14.0 mph 56% 0.00 in 0.00 W/m2
23:04 62.5 °F 46.1 °F 29.83 in East 9.0 mph 9.0 mph 55% 0.00 in 0.00 W/m2
23:09 62.5 °F 46.1 °F 29.83 in East 4.0 mph 8.0 mph 55% 0.00 in 0.00 W/m2
23:14 62.5 °F 46.1 °F 29.83 in East 4.0 mph 11.0 mph 55% 0.00 in 0.00 W/m2
23:24 62.4 °F 46.0 °F 29.83 in East 4.0 mph 9.0 mph 55% 0.00 in 0.00 W/m2
23:29 62.4 °F 46.0 °F 29.83 in ESE 6.0 mph 11.0 mph 55% 0.00 in 0.00 W/m2
23:34 62.3 °F 45.5 °F 29.82 in East 4.0 mph 8.0 mph 54% 0.00 in 0.00 W/m2
23:39 62.2 °F 45.4 °F 29.83 in ESE 5.0 mph 9.0 mph 54% 0.00 in 0.00 W/m2
23:45 62.2 °F 45.4 °F 29.83 in ESE 1.0 mph 8.0 mph 54% 0.00 in 0.00 W/m2
23:50 62.1 °F 45.3 °F 29.82 in ESE 4.0 mph 9.0 mph 54% 0.00 in 0.00 W/m2
23:55 62.1 °F 45.3 °F 29.82 in ESE 7.0 mph 8.0 mph 54% 0.00 in 0.00 W/m2
Foresthill Weather
 WU-history PHP script courtesy of   Juneau County Weather.
powered by Cumulus v1.9.3 (1059)
Ambient Weather VWS v14.00
Top Contact Website Map Copyright © 2007 - 2018 Foresthillweather.com Never base important decisions on this or any weather information obtained from the Internet